South Lake Tahoe, CA

5:18 PM PDT on July 27, 2017 (GMT -0700)
Lake Tahoe

Weather History for KTVL - February, 2014

Change the Weather History Date:

Thursday, February 6, 2014

  Actual Average Record
Temperature  
Mean Temperature 35 °F 30 °F  
Max Temperature 40 °F 43 °F 58 °F (2015)
Min Temperature 29 °F 17 °F -26 °F (1989)
Degree Days  
Heating Degree Days 30 35  
Month to date heating degree days 241 210  
Since 1 July heating degree days 4082 4492  
Cooling Degree Days 0 0  
Month to date cooling degree days 0 0  
Year to date cooling degree days 0 0  
Moisture  
Dew Point 25 °F    
Average Humidity 72    
Maximum Humidity 85    
Minimum Humidity 59    
Precipitation  
Precipitation T in - 1.19 in (1969)
Month to date precipitation 0.06  
Year to date precipitation 2.33  
Sea Level Pressure  
Sea Level Pressure 29.85 in    
Wind  
Wind Speed 8 mph (South)    
Max Wind Speed 23 mph    
Max Gust Speed 31 mph    
Visibility 7 miles    
Events Snow    
T = Trace of Precipitation, MM = Missing Value Source: NWS Daily Summary

Daily Weather History Graph

Daily Weather History Graph

Search for Another Location

Airport or City:

Trip Planner

Search our weather history database for the weather conditions in past years. The results will help you decide how hot, cold, wet, or windy it might be!

Date:

Astronomy

Feb. 06, 2014 Rise Set
Actual Time 7:01 AM PST 5:27 PM PST
Civil Twilight 6:33 AM PST 5:55 PM PST
Nautical Twilight 6:01 AM PST 6:26 PM PST
Astronomical Twilight 5:30 AM PST 6:57 PM PST
Moon 11:02 AM PST (2/6) 12:22 AM PST (2/6)
Length of Visible Light 11h 21m
Length of Day
10h 26m
Waxing Crescent, 50% of the Moon is Illuminated
Feb 6
Waxing Crescent
Feb 14
Full
Feb 22
Last Quarter
Mar 1
New
Mar 8
First Quarter

Hourly Weather History & Observations

Time (PST) Temp. Windchill Dew Point Humidity Pressure Visibility Wind Dir Wind Speed Gust Speed Precip Events Conditions
12:53 AM 30.9 °F 26.2 °F 21.0 °F 67% 29.90 in 10.0 mi Variable 4.6 mph - N/A   Overcast
1:38 AM 30.9 °F 22.2 °F 21.0 °F 67% 29.91 in 4.0 mi SSW 10.4 mph - 0.00 in Snow Light Snow
1:53 AM 30.0 °F 21.1 °F 21.0 °F 69% 29.90 in 3.0 mi SW 10.4 mph 19.6 mph 0.00 in Snow Light Snow
2:03 AM 30.0 °F 21.7 °F 21.0 °F 69% 29.92 in 2.5 mi SW 9.2 mph - 0.00 in Snow Light Snow
2:14 AM 30.0 °F 22.4 °F 21.0 °F 69% 29.91 in 3.0 mi SSW 8.1 mph - 0.00 in Snow Light Snow
2:53 AM 30.0 °F 23.2 °F 23.0 °F 75% 29.87 in 3.0 mi SSW 6.9 mph - 0.00 in Snow Light Snow
3:53 AM 28.9 °F 20.4 °F 24.1 °F 82% 29.86 in 3.0 mi South 9.2 mph - 0.00 in Snow Light Snow
4:27 AM 30.0 °F 23.2 °F 24.1 °F 79% 29.87 in 5.0 mi SSW 6.9 mph - 0.00 in Snow Light Snow
4:40 AM 30.0 °F 23.2 °F 24.1 °F 79% 29.87 in 2.5 mi SSW 6.9 mph - 0.00 in Snow Light Snow
4:53 AM 30.0 °F 25.2 °F 24.1 °F 79% 29.86 in 3.0 mi SSW 4.6 mph - 0.00 in Snow Light Snow
4:58 AM 30.0 °F 23.2 °F 24.1 °F 79% 29.87 in 5.0 mi SSW 6.9 mph - 0.00 in Snow Light Snow
5:19 AM 30.0 °F 24.1 °F 24.1 °F 79% 29.87 in 3.0 mi SSW 5.8 mph - 0.00 in Snow Light Snow
5:29 AM 30.0 °F 24.1 °F 24.1 °F 79% 29.87 in 2.5 mi SSW 5.8 mph - 0.00 in Snow Light Snow
5:45 AM 30.0 °F 23.2 °F 24.1 °F 79% 29.86 in 5.0 mi SSW 6.9 mph - 0.00 in Snow Light Snow
5:53 AM 30.0 °F 24.1 °F 24.1 °F 79% 29.86 in 5.0 mi SSW 5.8 mph - 0.00 in Snow Light Snow
6:02 AM 30.0 °F 23.2 °F 24.1 °F 79% 29.86 in 4.0 mi SSW 6.9 mph - 0.00 in Snow Light Snow
6:13 AM 30.0 °F 24.1 °F 24.1 °F 79% 29.86 in 7.0 mi SSW 5.8 mph - 0.00 in Snow Light Snow
6:53 AM 30.0 °F 24.1 °F 24.1 °F 79% 29.86 in 6.0 mi SSW 5.8 mph - 0.00 in Snow Light Snow
7:46 AM 30.9 °F 26.2 °F 24.1 °F 76% 29.86 in 3.0 mi SSW 4.6 mph - 0.00 in Snow Light Snow
7:53 AM 30.9 °F 25.2 °F 24.1 °F 76% 29.86 in 3.0 mi South 5.8 mph - 0.00 in Snow Light Snow
8:03 AM 30.9 °F 26.2 °F 24.1 °F 76% 29.86 in 5.0 mi SSE 4.6 mph - 0.00 in Snow Light Snow
8:53 AM 32.0 °F 26.4 °F 25.0 °F 75% 29.86 in 10.0 mi SSW 5.8 mph - 0.00 in   Overcast
9:09 AM 34.0 °F 28.0 °F 25.0 °F 70% 29.86 in 10.0 mi South 6.9 mph - N/A   Overcast
9:50 AM 35.6 °F 28.6 °F 26.6 °F 70% 29.86 in 10.0 mi South 9.2 mph - N/A   Mostly Cloudy
9:53 AM 36.0 °F 29.0 °F 26.1 °F 67% 29.84 in 10.0 mi SSW 9.2 mph - N/A   Mostly Cloudy
10:53 AM 37.9 °F 30.5 °F 27.0 °F 65% 29.83 in 10.0 mi South 11.5 mph - N/A   Partly Cloudy
11:53 AM 39.0 °F 31.4 °F 27.0 °F 62% 29.81 in 10.0 mi South 12.7 mph - N/A   Overcast
12:43 PM 39.9 °F 33.4 °F 26.1 °F 58% 29.80 in 10.0 mi South 10.4 mph - N/A   Overcast
12:53 PM 39.0 °F 31.0 °F 26.1 °F 60% 29.78 in 10.0 mi South 13.8 mph - N/A   Overcast
1:14 PM 39.0 °F 31.8 °F 27.0 °F 62% 29.80 in 10.0 mi South 11.5 mph - N/A   Overcast
1:53 PM 37.9 °F 30.9 °F 28.0 °F 68% 29.77 in 10.0 mi South 10.4 mph - N/A   Overcast
2:53 PM 37.0 °F 28.9 °F 28.0 °F 70% 29.78 in 10.0 mi South 12.7 mph - N/A   Overcast
3:53 PM 37.0 °F 30.4 °F 28.9 °F 73% 29.80 in 8.0 mi SSE 9.2 mph - 0.00 in   Overcast
4:27 PM 36.0 °F 28.5 °F 28.0 °F 73% 29.82 in 8.0 mi SSE 10.4 mph - 0.00 in Snow Light Snow
4:53 PM 36.0 °F 29.6 °F 27.0 °F 70% 29.80 in 10.0 mi SSE 8.1 mph - 0.00 in   Overcast
5:53 PM 36.0 °F 28.0 °F 27.0 °F 70% 29.80 in 10.0 mi SSE 11.5 mph 18.4 mph N/A   Overcast
6:53 PM 35.1 °F 29.3 °F 26.1 °F 70% 29.81 in 10.0 mi Variable 6.9 mph - N/A   Overcast
7:36 PM 35.1 °F 26.9 °F 25.0 °F 67% 29.83 in 10.0 mi SE 11.5 mph - N/A   Overcast
7:53 PM 35.1 °F 27.9 °F 24.1 °F 64% 29.83 in 10.0 mi SSE 9.2 mph - N/A   Overcast
8:40 PM 34.0 °F 25.0 °F 25.0 °F 70% 29.86 in 4.0 mi South 12.7 mph 21.9 mph 0.00 in Snow Light Snow
8:53 PM 34.0 °F 25.5 °F 24.1 °F 67% 29.85 in 7.0 mi South 11.5 mph - 0.00 in Snow Light Snow
9:02 PM 35.1 °F 26.4 °F 24.1 °F 64% 29.86 in 10.0 mi South 12.7 mph - 0.00 in   Overcast
9:53 PM 34.0 °F 23.8 °F 25.0 °F 70% 29.86 in 10.0 mi South 16.1 mph - 0.00 in   Overcast
10:08 PM 34.0 °F 23.4 °F 24.1 °F 67% 29.88 in 9.0 mi South 17.3 mph 21.9 mph N/A   Mostly Cloudy
10:18 PM 33.1 °F 23.9 °F 25.0 °F 72% 29.88 in 4.0 mi South 12.7 mph - 0.00 in Snow Light Snow
10:26 PM 33.1 °F 23.4 °F 25.0 °F 72% 29.89 in 9.0 mi South 13.8 mph - 0.00 in   Mostly Cloudy
10:53 PM 34.0 °F 24.2 °F 21.9 °F 61% 29.86 in 10.0 mi SSW 15.0 mph 24.2 mph 0.00 in   Overcast
11:53 PM 34.0 °F 23.0 °F 21.9 °F 61% 29.86 in 10.0 mi South 18.4 mph 24.2 mph 0.00 in   Overcast